User: anonymous   Login
Location: Unspecified
(0.0000°N, 0.0000°E)
Time: 11:39:32
(UTC+01:00)
Language:

Timation 2 Rocket - Orbit

View from above orbital plane
View from above orbital plane
View from above satellite
View from above satellite

Ground track
Ground track

The orbit data is extracted from the following two-line orbital elements,

1 04159U 69082AB  14354.89265107  .00000072  00000-0  12706-3 0  7748
2 04159 069.9614 228.2395 0113609 142.4376 218.4723 13.72269504263337
Epoch (UTC): 20 December 2014 21:25:25
Eccentricity: 0.0113609
inclination: 69.9614°
perigee height: 908 km
apogee height: 1075 km
right ascension of ascending node: 228.2395°
argument of perigee: 142.4376°
revolutions per day: 13.72269504
mean anomaly at epoch: 218.4723°
orbit number at epoch: 26333

The dashed part of the orbit path shows where the satellite is in the earth's shadow,  

DLR